[[{"header":{"parameterUnit":"m.s-1","parameterCategory":1,"la1":30.2991,"la2":30.254,"lo1":-89.0895,"lo2":-89.0444,"dy":0.0017,"dx":0.0017,"nx":28,"ny":28,"refTime":"2024-11-23T03:00:00:Z","depth":0,"parameterNumber":2,"parameterNumberName":"U-component_of_WINDS"},"data":[0,0,0,0,0,0,0,0,0,0,0,0,0,0,0,0,0,0,0,0,0,0,0,0,0,0,0,0,0,0,0,0,0,0,0,0,0,0,0,0,0,0,0,0,0,0,0,0,0,0,0,0,0,0,0,0,0,0,3.0587,3.0587,0,3.062,3.062,3.062,3.0586,3.0585,3.0583,3.0582,3.0616,3.0618,3.062,0,0,0,0,0,0,0,0,0,0,0,0,0,3.0496,3.0498,3.0587,3.0587,3.0588,3.062,3.062,3.062,3.0586,3.0585,3.0583,3.0582,3.0615,3.0618,3.062,0,0,0,0,0,0,0,0,0,0,0,0,0,3.0533,3.0499,3.0587,3.0575,3.0574,3.0619,3.062,3.0621,3.0587,3.0585,3.0583,3.0581,3.0614,3.0617,3.0621,3.068,0,0,3.063,3.0632,0,0,0,0,0,0,0,0,3.0531,3.0536,3.0576,3.0575,3.0575,3.0597,3.06,3.0641,3.0587,3.0582,3.0582,3.058,3.0611,3.0614,3.0625,3.0682,3.0683,3.0631,3.0633,3.0634,3.0635,0,0,0,0,0,0,0,3.0529,3.0535,3.06,3.0577,3.0576,3.0568,3.0571,3.0608,3.0607,3.0582,3.058,3.0584,3.061,3.0622,3.0625,3.0684,3.0631,3.0633,3.0635,3.0637,3.0793,3.0795,0,0,0,0,0,0,3.0527,3.0533,3.0599,3.0601,3.0548,3.0571,3.0574,3.0592,3.0607,3.0607,3.0586,3.0582,3.0617,3.0622,3.0627,3.0699,3.0634,3.0637,3.0639,3.0791,3.0794,3.0796,0,0,0,0,0,0,3.0526,3.0534,3.0597,3.0566,3.0574,3.0575,3.0594,3.0593,3.0605,3.0609,3.0609,3.0597,3.0616,3.0622,3.0668,3.0699,3.0638,3.0641,3.0788,3.0792,3.0795,3.0842,0,0,0,0,0,0,3.0523,3.0533,3.0555,3.0567,3.0576,3.0638,3.0596,3.0595,3.061,3.0606,3.062,3.0621,3.0615,3.0663,3.0671,3.0703,3.0644,3.0785,3.079,3.0794,3.0838,3.0847,3.0855,0,0,0,0,0,3.052,3.0567,3.0556,3.0565,3.0603,3.0639,3.0644,3.0636,3.0613,3.0636,3.0639,3.062,3.0695,3.0668,3.0676,3.071,3.0783,3.0789,3.0794,3.0834,3.0845,3.0854,0,0,0,0,0,0,3.0558,3.0568,3.0557,3.0609,3.0624,3.0634,3.0662,3.0648,3.067,3.0665,3.0654,3.0658,3.0707,3.0713,3.0683,3.0769,3.0735,3.0742,3.0763,3.0774,3.0782,3.078,3.0646,0,0,0,0,0,3.0573,3.0601,3.0608,3.0654,3.0662,3.0661,3.0676,3.0669,3.0684,3.069,3.0696,3.0712,3.0739,3.0756,3.0781,3.0839,3.0842,3.0866,3.0874,3.0881,3.0887,3.092,3.0931,3.0813,3.0813,3.0813,0,0,3.0603,3.0612,3.063,3.0662,3.0672,3.0702,3.0666,3.0699,3.0722,3.0695,3.0738,3.0744,3.0761,3.0813,3.0836,3.0819,3.0921,3.0888,3.0893,3.0896,3.0926,3.0938,3.0948,3.0816,3.0815,3.0815,0,0,3.0674,3.0683,3.0723,3.0734,3.0751,3.075,3.076,3.0773,3.0775,3.0819,3.08,3.0827,3.0873,3.0887,3.0899,3.0977,3.0962,3.0986,3.1029,3.1061,3.107,3.1079,3.1108,3.1118,3.0992,3.0992,3.0992,0,3.0709,3.0754,3.0745,3.078,3.0795,3.0772,3.0813,3.0825,3.0849,3.086,3.0841,3.09,3.0909,3.0965,3.0984,3.0995,3.1007,3.0984,3.107,3.1078,3.1086,3.1113,3.1124,3.0995,3.0995,3.0994,3.0994,0,3.0797,3.0828,3.0858,3.0883,3.0901,3.0939,3.0936,3.0956,3.0948,3.095,3.0995,3.1006,3.1034,3.1047,3.1038,3.1102,3.1091,3.1071,3.1037,3.11,3.1126,3.1136,3.0999,3.0998,3.0997,3.0996,0,0,3.0892,3.0912,3.0923,3.0935,3.0953,3.0977,3.1015,3.1042,3.1059,3.1077,3.1109,3.115,3.1132,3.1146,3.114,3.1168,3.1231,3.1145,3.1145,3.1161,3.1303,3.1319,3.1331,3.1221,3.1223,3.1224,3.1302,0,3.0964,3.1028,3.1022,3.1084,3.1114,3.1094,3.1127,3.1142,3.1145,3.1171,3.1174,3.1203,3.1177,3.1186,3.1213,3.1217,3.1259,3.1212,3.1251,3.1252,3.1248,3.1344,3.136,3.1433,3.1312,3.1314,3.1315,0,3.1056,3.1078,3.1143,3.1158,3.117,3.1199,3.1225,3.125,3.1267,3.1267,3.1285,3.1274,3.1313,3.1278,3.1332,3.13,3.1315,3.132,3.1323,3.1327,3.1288,3.1351,3.1456,3.1467,3.133,3.1329,3.1328,0,3.112,3.1166,3.1211,3.1221,3.124,3.1261,3.127,3.1285,3.1302,3.1325,3.1336,3.1363,3.1378,3.1399,3.1396,3.1371,3.1452,3.1416,3.1454,3.1454,3.1472,3.1471,3.1582,3.1481,3.1481,3.1481,3.1481,0,3.1202,3.1242,3.124,3.1268,3.1314,3.1307,3.1352,3.1358,3.1372,3.1402,3.1386,3.1414,3.1408,3.1437,3.1435,3.1481,3.1487,3.1489,3.1488,3.1491,3.1491,3.1501,3.1497,3.1484,3.1483,3.1482,3.1482,0,3.1281,3.1281,3.1329,3.1343,3.1347,3.138,3.1393,3.1419,3.1422,3.1459,3.1468,3.1471,3.1504,3.1504,3.154,3.1539,3.1596,3.1589,3.159,3.1589,3.1627,3.1624,3.1749,3.1766,3.1654,3.1655,3.1656,0,3.1333,3.1364,3.1382,3.14,3.141,3.144,3.1458,3.1453,3.1473,3.1496,3.152,3.1552,3.1576,3.163,3.1636,3.1665,3.1659,3.1701,3.1663,3.1665,3.1661,3.1659,3.1663,3.1708,3.1709,3.171,3.1711,0,3.1426,3.1425,3.1451,3.1479,3.1501,3.1522,3.1541,3.1557,3.1554,3.1577,3.1611,3.163,3.1668,3.17,3.1728,3.1738,3.1725,3.1723,3.1734,3.1737,3.1737,3.1739,3.1611,3.172,3.1719,3.1719,3.1718,3.1718,3.1494,3.1521,3.1538,3.1569,3.1583,3.1602,3.1628,3.1634,3.1662,3.1693,3.1688,3.1726,3.1744,3.1781,3.1793,3.1823,3.1808,3.1823,3.1827,3.1831,3.1836,3.1732,3.1828,3.1828,3.1827,3.1827,3.1827,0,3.1587,3.1597,3.1626,3.1654,3.1678,3.1664,3.1685,3.1706,3.174,3.1758,3.1783,3.1822,3.1853,3.1863,3.1893,3.1916,3.1911,3.1924,3.1922,3.1925,3.1846,3.1835,3.1928,3.1928,3.1928,3.1928,3.1927,3.1927,3.1638,3.1684,3.1686,3.1739,3.1749,3.1786,3.18,3.1818,3.1832,3.1877,3.1903,3.1909,3.1924,3.1955,3.1984,3.1986,3.1998,3.2014,3.2014,3.1941,3.193,3.1921,3.191,3.2017,3.2017,3.209,3.2091,3.2092]},{"header":{"parameterUnit":"m.s-1","parameterCategory":1,"la1":30.2991,"la2":30.254,"lo1":-89.0895,"lo2":-89.0444,"dy":0.0017,"dx":0.0017,"nx":28,"ny":28,"refTime":"2024-11-23T03:00:00:Z","depth":0,"parameterNumber":3,"parameterNumberName":"V-component_of_WINDS"},"data":[0,0,0,0,0,0,0,0,0,0,0,0,0,0,0,0,0,0,0,0,0,0,0,0,0,0,0,0,0,0,0,0,0,0,0,0,0,0,0,0,0,0,0,0,0,0,0,0,0,0,0,0,0,0,0,0,0,0,-3.0457,-3.0458,0,-3.056,-3.0561,-3.0563,-3.0598,-3.0597,-3.0597,-3.0596,-3.07,-3.0703,-3.0706,0,0,0,0,0,0,0,0,0,0,0,0,0,-3.0288,-3.0291,-3.0457,-3.0458,-3.0459,-3.056,-3.0562,-3.0563,-3.0598,-3.0597,-3.0597,-3.0596,-3.0699,-3.0703,-3.0707,0,0,0,0,0,0,0,0,0,0,0,0,0,-3.0373,-3.0292,-3.0456,-3.0489,-3.0493,-3.056,-3.0562,-3.0563,-3.0598,-3.0597,-3.0596,-3.0596,-3.0698,-3.0702,-3.0707,-3.0749,0,0,-3.0722,-3.0724,0,0,0,0,0,0,0,0,-3.0368,-3.0379,-3.0483,-3.0487,-3.0491,-3.0565,-3.054,-3.0625,-3.0598,-3.0558,-3.0596,-3.0596,-3.0656,-3.0664,-3.0685,-3.0754,-3.0758,-3.0722,-3.0725,-3.0727,-3.0728,0,0,0,0,0,0,0,-3.0362,-3.0375,-3.0498,-3.0484,-3.0489,-3.0498,-3.0509,-3.0556,-3.0609,-3.0561,-3.0564,-3.0576,-3.0658,-3.068,-3.0687,-3.076,-3.0722,-3.0726,-3.0729,-3.0731,-3.087,-3.0871,0,0,0,0,0,0,-3.0351,-3.037,-3.0494,-3.0501,-3.0427,-3.0501,-3.0514,-3.0542,-3.0608,-3.0618,-3.0576,-3.0577,-3.0672,-3.0682,-3.0691,-3.0745,-3.0727,-3.0731,-3.0734,-3.087,-3.0871,-3.0872,0,0,0,0,0,0,-3.0347,-3.0362,-3.049,-3.0436,-3.0453,-3.0505,-3.0536,-3.0544,-3.0567,-3.062,-3.0629,-3.0589,-3.0672,-3.0684,-3.0735,-3.0749,-3.0733,-3.0738,-3.0869,-3.087,-3.0871,-3.0854,0,0,0,0,0,0,-3.0342,-3.036,-3.0377,-3.0436,-3.0456,-3.0532,-3.0537,-3.0547,-3.0575,-3.0577,-3.0635,-3.0644,-3.0672,-3.0728,-3.074,-3.0756,-3.0741,-3.0867,-3.0869,-3.0871,-3.0853,-3.0854,-3.0855,0,0,0,0,0,-3.0336,-3.0367,-3.0377,-3.0392,-3.0478,-3.0533,-3.0544,-3.0578,-3.0576,-3.0593,-3.0628,-3.0642,-3.0746,-3.0732,-3.0746,-3.0764,-3.0867,-3.0869,-3.0871,-3.0853,-3.0854,-3.0855,0,0,0,0,0,0,-3.0306,-3.0375,-3.0388,-3.0439,-3.048,-3.0539,-3.0561,-3.0578,-3.0619,-3.0619,-3.0658,-3.0671,-3.0719,-3.0747,-3.073,-3.0809,-3.0807,-3.0812,-3.0789,-3.0791,-3.0792,-3.0784,-3.0745,0,0,0,0,0,-3.0306,-3.0346,-3.0404,-3.0443,-3.0463,-3.0509,-3.0534,-3.0556,-3.06,-3.0618,-3.0656,-3.0697,-3.074,-3.0767,-3.0809,-3.0858,-3.0871,-3.0877,-3.0878,-3.0878,-3.0882,-3.0911,-3.0915,-3.0878,-3.0878,-3.0878,0,0,-3.0305,-3.0348,-3.037,-3.0438,-3.0473,-3.0513,-3.0523,-3.0565,-3.0595,-3.0624,-3.0674,-3.0704,-3.0753,-3.0803,-3.0827,-3.0828,-3.0895,-3.0881,-3.0881,-3.0884,-3.0914,-3.0917,-3.092,-3.0879,-3.0879,-3.0879,0,0,-3.0324,-3.036,-3.0398,-3.0433,-3.0486,-3.0516,-3.0525,-3.0582,-3.0603,-3.0655,-3.0678,-3.0714,-3.0786,-3.0821,-3.0848,-3.0882,-3.0897,-3.0895,-3.09,-3.0928,-3.0931,-3.0933,-3.0946,-3.095,-3.0898,-3.0898,-3.0898,0,-3.0316,-3.0378,-3.0414,-3.0456,-3.0485,-3.0515,-3.0553,-3.0585,-3.0648,-3.0668,-3.0668,-3.076,-3.0795,-3.0855,-3.0864,-3.0884,-3.0896,-3.0888,-3.0927,-3.093,-3.0934,-3.0946,-3.0951,-3.0897,-3.0897,-3.0898,-3.0898,0,-3.0366,-3.0409,-3.0432,-3.0495,-3.0527,-3.0566,-3.0609,-3.0637,-3.0657,-3.0688,-3.074,-3.0784,-3.0836,-3.0852,-3.0871,-3.0914,-3.0913,-3.092,-3.0919,-3.0936,-3.0949,-3.0954,-3.0897,-3.0897,-3.0897,-3.0897,0,0,-3.0367,-3.0451,-3.0459,-3.0488,-3.055,-3.0583,-3.0625,-3.0677,-3.07,-3.0744,-3.0779,-3.0841,-3.0848,-3.0878,-3.0902,-3.0927,-3.0953,-3.0931,-3.0932,-3.0934,-3.1004,-3.0999,-3.1004,-3.0963,-3.0964,-3.0965,-3.1,0,-3.0394,-3.047,-3.0505,-3.0565,-3.0606,-3.0635,-3.0672,-3.0713,-3.0743,-3.0782,-3.0815,-3.0858,-3.0864,-3.0883,-3.0908,-3.0944,-3.0967,-3.0942,-3.0997,-3.0998,-3.0983,-3.101,-3.1005,-3.1036,-3.1005,-3.1006,-3.1007,0,-3.0436,-3.0481,-3.0545,-3.0604,-3.0622,-3.0654,-3.0705,-3.0742,-3.079,-3.081,-3.0845,-3.0869,-3.0914,-3.091,-3.0973,-3.0955,-3.0979,-3.1,-3.1002,-3.1009,-3.1003,-3.1017,-3.1046,-3.1051,-3.1015,-3.1014,-3.1014,0,-3.0431,-3.0507,-3.0556,-3.058,-3.0649,-3.0671,-3.0701,-3.0749,-3.0779,-3.0823,-3.0843,-3.0892,-3.0919,-3.0956,-3.0992,-3.0986,-3.1052,-3.1051,-3.107,-3.1069,-3.1082,-3.108,-3.1115,-3.1098,-3.1098,-3.1097,-3.1097,0,-3.0458,-3.0496,-3.0555,-3.0585,-3.063,-3.067,-3.0712,-3.0744,-3.0787,-3.0824,-3.0852,-3.0886,-3.0932,-3.0972,-3.1,-3.1048,-3.106,-3.1077,-3.1085,-3.1075,-3.1073,-3.1091,-3.109,-3.1099,-3.1099,-3.1098,-3.1098,0,-3.0459,-3.0501,-3.0556,-3.0618,-3.0634,-3.0664,-3.0717,-3.0748,-3.078,-3.0826,-3.0839,-3.089,-3.0938,-3.0978,-3.1041,-3.1061,-3.1111,-3.1119,-3.1095,-3.1099,-3.1115,-3.1113,-3.1163,-3.1172,-3.1148,-3.1148,-3.1149,0,-3.0473,-3.0504,-3.057,-3.0597,-3.0627,-3.067,-3.0701,-3.0742,-3.0773,-3.0832,-3.0855,-3.0906,-3.0949,-3.1025,-3.1067,-3.1116,-3.1125,-3.114,-3.1133,-3.1123,-3.1126,-3.1124,-3.1128,-3.114,-3.114,-3.114,-3.114,0,-3.0494,-3.0514,-3.0558,-3.0609,-3.0646,-3.0688,-3.0731,-3.0751,-3.0801,-3.0834,-3.0885,-3.0918,-3.0984,-3.1034,-3.1088,-3.1118,-3.1138,-3.1142,-3.1149,-3.1139,-3.1124,-3.1133,-3.1096,-3.114,-3.114,-3.114,-3.114,-3.114,-3.0503,-3.0532,-3.0583,-3.0632,-3.0669,-3.0709,-3.0741,-3.0778,-3.0821,-3.0879,-3.09,-3.0952,-3.1001,-3.1076,-3.1107,-3.1148,-3.115,-3.116,-3.1163,-3.1165,-3.1164,-3.1118,-3.1158,-3.1158,-3.1158,-3.1158,-3.1158,0,-3.0526,-3.0561,-3.0605,-3.0665,-3.0703,-3.0719,-3.0768,-3.0799,-3.0845,-3.0889,-3.0932,-3.0991,-3.104,-3.1087,-3.1139,-3.1163,-3.1173,-3.1175,-3.1174,-3.1181,-3.1159,-3.1148,-3.1166,-3.1166,-3.1166,-3.1166,-3.1166,-3.1166,-3.0542,-3.0592,-3.0618,-3.0688,-3.0723,-3.0775,-3.0801,-3.0839,-3.0875,-3.094,-3.0981,-3.1012,-3.1058,-3.1114,-3.116,-3.1173,-3.1191,-3.119,-3.1205,-3.1183,-3.1182,-3.1181,-3.1171,-3.1194,-3.1194,-3.1224,-3.1224,-3.1224]}]]